,,,PA_Meas_PMT16A,,PR_Meas_QMR101_102,,RH_Meas_QMH101,,SR_Meas_QMS101,,TA_Meas_QMH101,,GenWind,,GenWind,
date,time,status,PA,status,PR,status,RH,status,SR,status,TA,status,DirAvg,status,SpdAvg,
2009-07-08, 00:00:05,VALID,1000.29,VALID,0,VALID,74.8313,VALID,0,VALID,25.4988,VALID,169,VALID,1.86211,
2009-07-08, 00:01:05,VALID,1000.24,VALID,0,VALID,74.4422,VALID,0,VALID,25.5555,VALID,155,VALID,2.35742,
2009-07-08, 00:02:05,VALID,1000.24,VALID,0,VALID,73.4504,VALID,0,VALID,25.6726,VALID,153,VALID,2.73828,
2009-07-08, 00:03:05,VALID,1000.24,VALID,0,VALID,73.0612,VALID,0,VALID,25.7917,VALID,152,VALID,2.19141,
2009-07-08, 00:04:05,VALID,1000.22,VALID,0,VALID,72.9163,VALID,0,VALID,25.8679,VALID,163,VALID,1.8707,
2009-07-08, 00:05:05,VALID,1000.25,VALID,0,VALID,73.3817,VALID,0,VALID,25.9069,VALID,162,VALID,1.37578,
2009-07-08, 00:06:05,VALID,1000.23,VALID,0,VALID,72.695,VALID,0,VALID,25.8874,VALID,150,VALID,2.50273,
2009-07-08, 00:07:05,VALID,1000.24,VALID,0,VALID,72.8018,VALID,0,VALID,25.9264,VALID,168,VALID,2.02813,
2009-07-08, 00:08:05,VALID,1000.28,VALID,0,VALID,72.6645,VALID,0,VALID,25.9069,VALID,172,VALID,2.21094,
2009-07-08, 00:09:05,VALID,1000.27,VALID,0,VALID,73.1299,VALID,0,VALID,25.9069,VALID,174,VALID,1.35508,
2009-07-08, 00:10:05,VALID,1000.26,VALID,0,VALID,72.6111,VALID,0,VALID,25.9069,VALID,179,VALID,1.57227,
2009-07-08, 00:11:05,VALID,1000.29,VALID,0,VALID,73.0078,VALID,0,VALID,25.9264,VALID,163,VALID,1.48242,
2009-07-08, 00:12:05,VALID,1000.34,VALID,0,VALID,73.0078,VALID,0,VALID,25.9284,VALID,167,VALID,1.74063,
2009-07-08, 00:13:05,VALID,1000.33,VALID,0,VALID,72.4204,VALID,0,VALID,25.8874,VALID,162,VALID,1.7418,
2009-07-08, 00:14:05,VALID,1000.3,VALID,0,VALID,72.5653,VALID,0,VALID,25.8893,VALID,170,VALID,1.4625,
2009-07-08, 00:15:05,VALID,1000.34,VALID,0,VALID,73.1604,VALID,0,VALID,25.8874,VALID,146,VALID,1.43711,
2009-07-08, 00:16:05,VALID,1000.33,VALID,0,VALID,73.4351,VALID,0,VALID,25.8874,VALID,144,VALID,1.34766,
2009-07-08, 00:17:05,VALID,1000.38,VALID,0,VALID,73.9234,VALID,0,VALID,25.8483,VALID,139,VALID,1.12461,
2009-07-08, 00:18:05,VALID,1000.35,VALID,0,VALID,74.8466,VALID,0,VALID,25.8093,VALID,133,VALID,1.00234,
2009-07-08, 00:19:05,VALID,1000.34,VALID,0,VALID,74.2972,VALID,0,VALID,25.7312,VALID,134,VALID,1.33477,
2009-07-08, 00:20:05,VALID,1000.33,VALID,0,VALID,75.4722,VALID,0,VALID,25.6921,VALID,124,VALID,1.11797,
2009-07-08, 00:21:05,VALID,1000.31,VALID,0,VALID,74.7321,VALID,0,VALID,25.6531,VALID,135,VALID,1.24102,
2009-07-08, 00:22:05,VALID,1000.33,VALID,0,VALID,74.8695,VALID,0,VALID,25.6531,VALID,121,VALID,1.27773,
2009-07-08, 00:23:05,VALID,1000.33,VALID,0,VALID,74.343,VALID,0,VALID,25.614,VALID,124,VALID,1.80938,
2009-07-08, 00:24:05,VALID,1000.34,VALID,0,VALID,74.3506,VALID,0,VALID,25.614,VALID,127,VALID,1.87305,
2009-07-08, 00:25:05,VALID,1000.33,VALID,0,VALID,74.9,VALID,0,VALID,25.614,VALID,124,VALID,1.80391,
2009-07-08, 00:26:05,VALID,1000.35,VALID,0,VALID,74.6024,VALID,0,VALID,25.6121,VALID,118,VALID,1.90977,
2009-07-08, 00:27:05,VALID,1000.32,VALID,0,VALID,74.8008,VALID,0,VALID,25.6121,VALID,118,VALID,2.19805,
2009-07-08, 00:28:05,VALID,1000.34,VALID,0,VALID,74.4575,VALID,0,VALID,25.6511,VALID,128,VALID,2.35781,
2009-07-08, 00:29:05,VALID,1000.34,VALID,0,VALID,74.5109,VALID,0,VALID,25.6902,VALID,123,VALID,1.82539,
2009-07-08, 00:30:05,VALID,1000.34,VALID,0,VALID,74.1828,VALID,0.112286,VALID,25.6707,VALID,133,VALID,2.27461,
2009-07-08, 00:31:05,VALID,1000.31,VALID,0,VALID,73.9997,VALID,0,VALID,25.7097,VALID,125,VALID,2.26719,
2009-07-08, 00:32:05,VALID,1000.34,VALID,0,VALID,74.8771,VALID,0,VALID,25.6902,VALID,112,VALID,1.7793,
2009-07-08, 00:33:05,VALID,1000.35,VALID,0,VALID,74.8313,VALID,0,VALID,25.6511,VALID,111,VALID,1.87969,
2009-07-08, 00:34:05,VALID,1000.33,VALID,0,VALID,75.0831,VALID,0.112286,VALID,25.5926,VALID,115,VALID,2.04766,
2009-07-08, 00:35:05,VALID,1000.33,VALID,0,VALID,75.2204,VALID,0.112286,VALID,25.573,VALID,116,VALID,1.59648,
2009-07-08, 00:36:05,VALID,1000.31,VALID,0,VALID,76.0978,VALID,0,VALID,25.5535,VALID,105,VALID,1.39023,
2009-07-08, 00:37:05,VALID,1000.38,VALID,0,VALID,76.8303,VALID,0,VALID,25.4949,VALID,115,VALID,1.74688,
2009-07-08, 00:38:05,VALID,1000.34,VALID,0,VALID,76.8913,VALID,0.112286,VALID,25.4169,VALID,126,VALID,1.67031,
2009-07-08, 00:39:05,VALID,1000.34,VALID,0,VALID,76.3801,VALID,0.112286,VALID,25.4383,VALID,120,VALID,1.64023,
2009-07-08, 00:40:05,VALID,1000.35,VALID,0,VALID,74.2591,VALID,0,VALID,25.4559,VALID,141,VALID,1.43711,
2009-07-08, 00:41:05,VALID,1000.33,VALID,0,VALID,74.1218,VALID,0.112286,VALID,25.573,VALID,118,VALID,1.02305,
2009-07-08, 00:42:05,VALID,1000.39,VALID,0,VALID,75.8003,VALID,0,VALID,25.6121,VALID,102,VALID,1.51172,
2009-07-08, 00:43:05,VALID,1000.36,VALID,0,VALID,74.5643,VALID,0,VALID,25.573,VALID,149,VALID,1.68125,
2009-07-08, 00:44:05,VALID,1000.39,VALID,0,VALID,75.2891,VALID,0,VALID,25.6316,VALID,123,VALID,1.46953,
2009-07-08, 00:45:05,VALID,1000.37,VALID,0,VALID,75.3425,VALID,0.112286,VALID,25.6726,VALID,136,VALID,1.86602,
2009-07-08, 00:46:05,VALID,1000.36,VALID,0,VALID,75.8308,VALID,0.112286,VALID,25.6511,VALID,127,VALID,1.55781,
2009-07-08, 00:47:05,VALID,1000.38,VALID,0,VALID,75.4798,VALID,0,VALID,25.6121,VALID,144,VALID,1.49766,
2009-07-08, 00:48:05,VALID,1000.35,VALID,0,VALID,75.6477,VALID,0.112286,VALID,25.6316,VALID,124,VALID,1.72461,
2009-07-08, 00:49:05,VALID,1000.34,VALID,0,VALID,75.0144,VALID,0.112286,VALID,25.6316,VALID,129,VALID,1.70078,
2009-07-08, 00:50:05,VALID,1000.35,VALID,0,VALID,75.2281,VALID,0,VALID,25.6511,VALID,146,VALID,1.21563,
2009-07-08, 00:51:05,VALID,1000.37,VALID,0,VALID,74.6177,VALID,0,VALID,25.6531,VALID,152,VALID,1.85625,
2009-07-08, 00:52:05,VALID,1000.37,VALID,0,VALID,75.1518,VALID,0,VALID,25.6921,VALID,131,VALID,2.15156,
2009-07-08, 00:53:05,VALID,1000.34,VALID,0,VALID,75.0602,VALID,0,VALID,25.6726,VALID,125,VALID,2.37227,
2009-07-08, 00:54:05,VALID,1000.37,VALID,0,VALID,75.5866,VALID,0,VALID,25.6531,VALID,129,VALID,2.31953,
2009-07-08, 00:55:05,VALID,1000.33,VALID,0,VALID,75.7469,VALID,0,VALID,25.5945,VALID,137,VALID,1.97109,
2009-07-08, 00:56:05,VALID,1000.33,VALID,0,VALID,75.7392,VALID,0,VALID,25.5535,VALID,147,VALID,1.87852,
2009-07-08, 00:57:05,VALID,1000.3,VALID,0,VALID,76.0673,VALID,0,VALID,25.534,VALID,150,VALID,1.54141,
2009-07-08, 00:58:05,VALID,1000.29,VALID,0,VALID,76.5251,VALID,0,VALID,25.5145,VALID,158,VALID,1.21563,
2009-07-08, 00:59:05,VALID,1000.31,VALID,0,VALID,76.5022,VALID,0,VALID,25.4754,VALID,166,VALID,1.53203,
2009-07-08, 01:00:05,VALID,1000.3,VALID,0,VALID,75.991,VALID,0,VALID,25.4559,VALID,164,VALID,1.83711,
2009-07-08, 01:01:05,VALID,1000.3,VALID,0,VALID,76.2123,VALID,0,VALID,25.4949,VALID,164,VALID,1.56562,
2009-07-08, 01:02:05,VALID,1000.27,VALID,0,VALID,76.1512,VALID,0,VALID,25.4949,VALID,156,VALID,1.95156,
2009-07-08, 01:03:05,VALID,1000.25,VALID,0,VALID,76.6166,VALID,0.112286,VALID,25.4949,VALID,167,VALID,1.66641,
2009-07-08, 01:04:05,VALID,1000.23,VALID,0,VALID,76.4717,VALID,0,VALID,25.4949,VALID,162,VALID,1.57891,
2009-07-08, 01:05:05,VALID,1000.23,VALID,0,VALID,76.4183,VALID,0,VALID,25.4969,VALID,162,VALID,1.79531,
2009-07-08, 01:06:05,VALID,1000.19,VALID,0,VALID,76.7082,VALID,0,VALID,25.4969,VALID,162,VALID,1.49219,
2009-07-08, 01:07:05,VALID,1000.17,VALID,0,VALID,76.3344,VALID,0,VALID,25.4754,VALID,160,VALID,1.49141,
2009-07-08, 01:08:05,VALID,1000.16,VALID,0,VALID,76.6014,VALID,0,VALID,25.4559,VALID,151,VALID,1.30352,
2009-07-08, 01:09:05,VALID,1000.11,VALID,0,VALID,76.6777,VALID,0,VALID,25.4559,VALID,159,VALID,1.42773,
2009-07-08, 01:10:05,VALID,1000.09,VALID,0,VALID,76.5556,VALID,0,VALID,25.4169,VALID,161,VALID,1.28906,
2009-07-08, 01:11:05,VALID,1000.03,VALID,0,VALID,76.5938,VALID,0,VALID,25.4169,VALID,164,VALID,1.46602,
2009-07-08, 01:12:05,VALID,999.985,VALID,0,VALID,76.6166,VALID,0,VALID,25.3973,VALID,168,VALID,1.26523,
2009-07-08, 01:13:05,VALID,1000,VALID,0,VALID,76.4717,VALID,0,VALID,25.3973,VALID,176,VALID,1.42773,
2009-07-08, 01:14:05,VALID,999.99,VALID,0,VALID,76.6166,VALID,0.112286,VALID,25.3973,VALID,174,VALID,1.12461,
2009-07-08, 01:15:05,VALID,999.973,VALID,0,VALID,76.7387,VALID,0,VALID,25.4169,VALID,182,VALID,1.13672,
2009-07-08, 01:16:05,VALID,999.954,VALID,0,VALID,76.5175,VALID,0,VALID,25.4364,VALID,216,VALID,0.808594,
2009-07-08, 01:17:05,VALID,999.943,VALID,0,VALID,75.991,VALID,0,VALID,25.4774,VALID,236,VALID,1.00977,
2009-07-08, 01:18:05,VALID,999.924,VALID,0,VALID,75.7926,VALID,0,VALID,25.5145,VALID,247,VALID,0.752344,
2009-07-08, 01:19:05,VALID,999.936,VALID,0,VALID,75.4417,VALID,0,VALID,25.5145,VALID,225,VALID,1.03945,
2009-07-08, 01:20:05,VALID,999.926,VALID,0,VALID,76.1741,VALID,0,VALID,25.575,VALID,250,VALID,0.763281,
2009-07-08, 01:21:05,VALID,999.933,VALID,0,VALID,75.1594,VALID,0,VALID,25.573,VALID,236,VALID,1.43242,
2009-07-08, 01:22:05,VALID,999.936,VALID,0,VALID,75.2128,VALID,0,VALID,25.573,VALID,243,VALID,0.798828,
2009-07-08, 01:23:05,VALID,999.914,VALID,0,VALID,74.8542,VALID,0,VALID,25.573,VALID,228,VALID,0.835547,
2009-07-08, 01:24:05,VALID,999.888,VALID,0,VALID,75.518,VALID,0,VALID,25.5926,VALID,244,VALID,0.548828,
2009-07-08, 01:25:05,VALID,999.914,VALID,0,VALID,75.6172,VALID,0,VALID,25.5535,VALID,260,VALID,0.759375,
2009-07-08, 01:26:05,VALID,999.901,VALID,0,VALID,76.0444,VALID,0,VALID,25.5164,VALID,274,VALID,0.748047,
2009-07-08, 01:27:05,VALID,999.924,VALID,0,VALID,76.1818,VALID,0,VALID,25.4754,VALID,277,VALID,0.633984,
2009-07-08, 01:28:05,VALID,999.919,VALID,0,VALID,76.1818,VALID,0,VALID,25.4169,VALID,276,VALID,0.725,
2009-07-08, 01:29:05,VALID,999.917,VALID,0,VALID,77.1049,VALID,0,VALID,25.3583,VALID,285,VALID,0.728516,
2009-07-08, 01:30:05,VALID,999.929,VALID,0,VALID,76.1818,VALID,0,VALID,25.3193,VALID,261,VALID,0.560938,
2009-07-08, 01:31:05,VALID,999.925,VALID,0,VALID,77.5322,VALID,0,VALID,25.2997,VALID,269,VALID,0.506641,
2009-07-08, 01:32:05,VALID,999.914,VALID,0,VALID,78.608,VALID,0,VALID,25.2217,VALID,326,VALID,0.740625,
2009-07-08, 01:33:05,VALID,999.898,VALID,0,VALID,79.8211,VALID,0,VALID,25.1241,VALID,342,VALID,0.905859,
2009-07-08, 01:34:05,VALID,999.894,VALID,0,VALID,81.82,VALID,0,VALID,24.9874,VALID,355,VALID,1.02891,
2009-07-08, 01:35:05,VALID,999.887,VALID,0,VALID,81.6674,VALID,0,VALID,24.7727,VALID,3,VALID,1.20625,
2009-07-08, 01:36:05,VALID,999.903,VALID,0,VALID,81.5301,VALID,0,VALID,24.6361,VALID,5,VALID,1.0082,
2009-07-08, 01:37:05,VALID,999.87,VALID,0,VALID,82.4991,VALID,0,VALID,24.5775,VALID,13,VALID,0.845703,
2009-07-08, 01:38:05,VALID,999.865,VALID,0,VALID,83.262,VALID,0,VALID,24.4995,VALID,13,VALID,0.630078,
2009-07-08, 01:39:05,VALID,999.872,VALID,0,VALID,83.7656,VALID,0,VALID,24.4019,VALID,11,VALID,0.579297,
2009-07-08, 01:40:05,VALID,999.881,VALID,0,VALID,84.0479,VALID,0,VALID,24.3238,VALID,11,VALID,0.864062,
2009-07-08, 01:41:05,VALID,999.874,VALID,0,VALID,84.025,VALID,0,VALID,24.2653,VALID,7,VALID,0.660937,
2009-07-08, 01:42:05,VALID,999.903,VALID,0,VALID,84.17,VALID,0,VALID,24.2653,VALID,7,VALID,0.388672,
2009-07-08, 01:43:05,VALID,999.898,VALID,0,VALID,84.9177,VALID,0,VALID,24.2458,VALID,7,VALID,0.283594,
2009-07-08, 01:44:05,VALID,999.894,VALID,0,VALID,84.8948,VALID,0.112286,VALID,24.2049,VALID,7,VALID,0.446484,
2009-07-08, 01:45:05,VALID,999.91,VALID,0,VALID,84.643,VALID,0.112286,VALID,24.2067,VALID,7,VALID,0.637109,
2009-07-08, 01:46:05,VALID,999.921,VALID,0,VALID,84.8948,VALID,0,VALID,24.1677,VALID,13,VALID,0.790234,
2009-07-08, 01:47:05,VALID,999.924,VALID,0,VALID,84.4904,VALID,0,VALID,24.15,VALID,13,VALID,0.671875,
2009-07-08, 01:48:05,VALID,999.934,VALID,0,VALID,84.9787,VALID,0,VALID,24.1482,VALID,13,VALID,0.673828,
2009-07-08, 01:49:05,VALID,999.94,VALID,0,VALID,85.0626,VALID,0,VALID,24.1287,VALID,13,VALID,0.621875,
2009-07-08, 01:50:05,VALID,999.943,VALID,0,VALID,85.7035,VALID,0,VALID,24.1092,VALID,20,VALID,0.713672,
2009-07-08, 01:51:05,VALID,999.986,VALID,0,VALID,86.4589,VALID,0.112286,VALID,24.0506,VALID,45,VALID,1.2625,
2009-07-08, 01:52:05,VALID,999.95,VALID,0,VALID,86.764,VALID,0,VALID,23.9726,VALID,48,VALID,1.54648,
2009-07-08, 01:53:05,VALID,999.998,VALID,0,VALID,86.9929,VALID,0.112286,VALID,23.9336,VALID,46,VALID,1.41562,
2009-07-08, 01:54:05,VALID,999.983,VALID,0,VALID,87.2905,VALID,0,VALID,23.914,VALID,62,VALID,1.36836,
2009-07-08, 01:55:05,VALID,999.955,VALID,0,VALID,87.3439,VALID,0.112286,VALID,23.9531,VALID,70,VALID,1.14023,
2009-07-08, 01:56:05,VALID,999.972,VALID,0,VALID,87.6262,VALID,0,VALID,23.9549,VALID,84,VALID,0.820313,
2009-07-08, 01:57:05,VALID,999.958,VALID,0,VALID,87.672,VALID,0,VALID,23.9549,VALID,93,VALID,0.777344,
2009-07-08, 01:58:05,VALID,999.939,VALID,0,VALID,87.4889,VALID,0,VALID,23.9549,VALID,83,VALID,0.604297,
2009-07-08, 01:59:05,VALID,999.887,VALID,0,VALID,87.2981,VALID,0,VALID,23.9354,VALID,31,VALID,0.784766,
2009-07-08, 02:00:05,VALID,999.903,VALID,0,VALID,87.0387,VALID,0,VALID,23.9549,VALID,358,VALID,0.927344,
2009-07-08, 02:01:05,VALID,999.895,VALID,0,VALID,87.2447,VALID,0,VALID,24.0134,VALID,291,VALID,0.978125,
2009-07-08, 02:02:05,VALID,999.91,VALID,0,VALID,86.7717,VALID,0,VALID,23.9939,VALID,281,VALID,0.788281,
2009-07-08, 02:03:05,VALID,999.902,VALID,0,VALID,86.703,VALID,0,VALID,24.0525,VALID,273,VALID,0.630078,
2009-07-08, 02:04:05,VALID,999.887,VALID,0,VALID,86.0163,VALID,0,VALID,24.0915,VALID,273,VALID,0.440625,
2009-07-08, 02:05:05,VALID,999.831,VALID,0,VALID,85.734,VALID,0,VALID,24.0915,VALID,273,VALID,0.461328,
2009-07-08, 02:06:05,VALID,999.791,VALID,0,VALID,85.612,VALID,0,VALID,24.1305,VALID,273,VALID,0.476172,
2009-07-08, 02:07:05,VALID,999.789,VALID,0,VALID,84.9482,VALID,0,VALID,24.1092,VALID,273,VALID,0.605469,
2009-07-08, 02:08:05,VALID,999.772,VALID,0,VALID,85.2457,VALID,0,VALID,24.1696,VALID,273,VALID,0.543359,
2009-07-08, 02:09:05,VALID,999.719,VALID,0,VALID,85.2152,VALID,0,VALID,24.1696,VALID,273,VALID,0.702734,
2009-07-08, 02:10:05,VALID,999.778,VALID,0,VALID,85.4365,VALID,0,VALID,24.1696,VALID,261,VALID,0.177344,
2009-07-08, 02:11:05,VALID,999.754,VALID,0,VALID,85.0321,VALID,0,VALID,24.15,VALID,163,VALID,0.442578,
2009-07-08, 02:12:05,VALID,999.764,VALID,0,VALID,84.4752,VALID,0,VALID,24.1696,VALID,163,VALID,0.459766,
2009-07-08, 02:13:05,VALID,999.724,VALID,0,VALID,84.8872,VALID,0,VALID,24.2299,VALID,163,VALID,0.183594,
2009-07-08, 02:14:05,VALID,999.718,VALID,0,VALID,82.2931,VALID,0,VALID,24.2086,VALID,133,VALID,1.26133,
2009-07-08, 02:15:05,VALID,999.703,VALID,0,VALID,79.5083,VALID,0,VALID,24.3842,VALID,140,VALID,1.88125,
2009-07-08, 02:16:05,VALID,999.675,VALID,0,VALID,79.7448,VALID,0,VALID,24.7356,VALID,114,VALID,0.749219,
2009-07-08, 02:17:05,VALID,999.676,VALID,0,VALID,80.3475,VALID,0,VALID,24.8527,VALID,104,VALID,0.661328,
2009-07-08, 02:18:05,VALID,999.609,VALID,0,VALID,79.5388,VALID,0,VALID,24.8917,VALID,84,VALID,0.5,
2009-07-08, 02:19:05,VALID,999.594,VALID,0,VALID,79.6914,VALID,0,VALID,24.9112,VALID,84,VALID,0.205078,
2009-07-08, 02:20:05,VALID,999.572,VALID,0,VALID,79.6151,VALID,0,VALID,24.8722,VALID,85,VALID,0.45,
2009-07-08, 02:21:05,VALID,999.56,VALID,0,VALID,79.9279,VALID,0,VALID,24.8313,VALID,90,VALID,0.546094,
2009-07-08, 02:22:05,VALID,999.574,VALID,0,VALID,80.2407,VALID,0,VALID,24.8527,VALID,117,VALID,0.651953,
2009-07-08, 02:23:05,VALID,999.533,VALID,0,VALID,81.1563,VALID,0,VALID,24.8332,VALID,106,VALID,0.898438,
2009-07-08, 02:24:05,VALID,999.513,VALID,0,VALID,82.2168,VALID,0,VALID,24.7746,VALID,92,VALID,0.651172,
2009-07-08, 02:25:05,VALID,999.489,VALID,0,VALID,82.8806,VALID,0,VALID,24.677,VALID,82,VALID,0.659375,
2009-07-08, 02:26:05,VALID,999.527,VALID,0,VALID,83.3383,VALID,0,VALID,24.5971,VALID,82,VALID,0.317578,
2009-07-08, 02:27:05,VALID,999.517,VALID,0,VALID,84.3607,VALID,0.112286,VALID,24.48,VALID,337,VALID,0.846094,
2009-07-08, 02:28:05,VALID,999.496,VALID,0,VALID,84.91,VALID,0,VALID,24.3433,VALID,335,VALID,0.954687,
2009-07-08, 02:29:05,VALID,999.483,VALID,0,VALID,85.2839,VALID,0.112286,VALID,24.2067,VALID,335,VALID,0.872266,
2009-07-08, 02:30:05,VALID,999.466,VALID,0,VALID,85.528,VALID,0,VALID,24.1287,VALID,335,VALID,0.555078,
2009-07-08, 02:31:05,VALID,999.454,VALID,0,VALID,86.1766,VALID,0,VALID,24.1092,VALID,335,VALID,0.498437,
2009-07-08, 02:32:05,VALID,999.448,VALID,0,VALID,86.6801,VALID,0,VALID,24.0311,VALID,335,VALID,0.452734,
2009-07-08, 02:33:05,VALID,999.433,VALID,0,VALID,86.7488,VALID,0,VALID,24.0116,VALID,335,VALID,0.276953,
2009-07-08, 02:34:05,VALID,999.347,VALID,0,VALID,87.0311,VALID,0.112286,VALID,23.9726,VALID,335,VALID,0.428125,
2009-07-08, 02:35:05,VALID,999.373,VALID,0,VALID,87.5041,VALID,0,VALID,23.9531,VALID,335,VALID,0.527734,
2009-07-08, 02:36:05,VALID,999.352,VALID,0,VALID,87.8246,VALID,0.112286,VALID,23.914,VALID,335,VALID,0.226563,
2009-07-08, 02:37:05,VALID,999.332,VALID,0,VALID,88.0153,VALID,0,VALID,23.8555,VALID,335,VALID,0.200391,
2009-07-08, 02:38:05,VALID,999.307,VALID,0,VALID,88.1984,VALID,0,VALID,23.8165,VALID,335,VALID,0.161719,
2009-07-08, 02:39:05,VALID,999.296,VALID,0,VALID,88.2137,VALID,0,VALID,23.797,VALID,335,VALID,0.333984,
2009-07-08, 02:40:05,VALID,999.237,VALID,0,VALID,88,VALID,0,VALID,23.7775,VALID,335,VALID,0.135156,
2009-07-08, 02:41:05,VALID,999.241,VALID,0,VALID,87.8322,VALID,0,VALID,23.7793,VALID,335,VALID,0.202734,
2009-07-08, 02:42:05,VALID,999.209,VALID,0,VALID,87.5804,VALID,0,VALID,23.7793,VALID,335,VALID,0.0257812,
2009-07-08, 02:43:05,VALID,999.223,VALID,0,VALID,87.7559,VALID,0,VALID,23.7988,VALID,335,VALID,0,
2009-07-08, 02:44:05,VALID,999.22,VALID,0,VALID,87.5804,VALID,0,VALID,23.7988,VALID,335,VALID,0,
2009-07-08, 02:45:05,VALID,999.222,VALID,0,VALID,87.7788,VALID,0,VALID,23.7988,VALID,335,VALID,0.358984,
2009-07-08, 02:46:04,VALID,999.207,VALID,0,VALID,88.0077,VALID,0,VALID,23.7988,VALID,14,VALID,0.574219,
2009-07-08, 02:47:04,VALID,999.191,VALID,0,VALID,88.145,VALID,0,VALID,23.8183,VALID,51,VALID,0.819922,
2009-07-08, 02:48:04,VALID,999.158,VALID,0,VALID,88.2518,VALID,0,VALID,23.8573,VALID,51,VALID,1.01758,
2009-07-08, 02:49:04,VALID,999.133,VALID,0,VALID,88.5417,VALID,0,VALID,23.8768,VALID,50,VALID,1.32344,
2009-07-08, 02:50:04,VALID,999.124,VALID,0,VALID,88.8088,VALID,0,VALID,23.8768,VALID,42,VALID,1.14727,
2009-07-08, 02:51:04,VALID,999.121,VALID,0,VALID,88.9537,VALID,0,VALID,23.8378,VALID,33,VALID,0.946094,
2009-07-08, 02:52:04,VALID,999.117,VALID,0,VALID,89.0148,VALID,0,VALID,23.7793,VALID,25,VALID,1.20352,
2009-07-08, 02:53:04,VALID,999.141,VALID,0,VALID,89.0453,VALID,0,VALID,23.7012,VALID,17,VALID,1.17773,
2009-07-08, 02:54:04,VALID,999.126,VALID,0,VALID,89.1597,VALID,0,VALID,23.6427,VALID,10,VALID,0.996484,
2009-07-08, 02:55:04,VALID,999.118,VALID,0,VALID,89.175,VALID,0,VALID,23.6036,VALID,354,VALID,1.46055,
2009-07-08, 02:56:04,VALID,999.113,VALID,0,VALID,88.9537,VALID,0,VALID,23.6036,VALID,355,VALID,0.926172,
2009-07-08, 02:57:04,VALID,999.113,VALID,0,VALID,88.9309,VALID,0,VALID,23.6232,VALID,355,VALID,0.509375,
2009-07-08, 02:58:04,VALID,999.115,VALID,0,VALID,88.8393,VALID,0,VALID,23.6232,VALID,355,VALID,0.40625,
2009-07-08, 02:59:04,VALID,999.129,VALID,0,VALID,88.7477,VALID,0,VALID,23.5841,VALID,35,VALID,0.722266,
2009-07-08, 03:00:04,VALID,999.086,VALID,0,VALID,88.8698,VALID,0,VALID,23.5451,VALID,53,VALID,1.07266,
2009-07-08, 03:01:04,VALID,999.081,VALID,0,VALID,89.0224,VALID,0,VALID,23.5469,VALID,41,VALID,1.83633,
2009-07-08, 03:02:04,VALID,999.118,VALID,0,VALID,89.1826,VALID,0,VALID,23.4671,VALID,45,VALID,2.38359,
2009-07-08, 03:03:04,VALID,999.118,VALID,0,VALID,89.4115,VALID,0,VALID,23.4671,VALID,44,VALID,2.42461,
2009-07-08, 03:04:04,VALID,999.11,VALID,0,VALID,89.5717,VALID,0,VALID,23.4475,VALID,41,VALID,1.7457,
2009-07-08, 03:05:04,VALID,999.141,VALID,0,VALID,89.938,VALID,0,VALID,23.4475,VALID,56,VALID,1.4832,
2009-07-08, 03:06:04,VALID,999.135,VALID,0,VALID,90.0295,VALID,0,VALID,23.4671,VALID,69,VALID,1.14219,
2009-07-08, 03:07:04,VALID,999.137,VALID,0,VALID,89.9151,VALID,0,VALID,23.4671,VALID,71,VALID,1.28086,
2009-07-08, 03:08:04,VALID,999.123,VALID,0,VALID,89.9074,VALID,0,VALID,23.4866,VALID,64,VALID,1.05586,
2009-07-08, 03:09:04,VALID,999.137,VALID,0,VALID,89.7396,VALID,0,VALID,23.4866,VALID,52,VALID,1.22305,
2009-07-08, 03:10:04,VALID,999.133,VALID,0,VALID,89.5412,VALID,0,VALID,23.4866,VALID,58,VALID,1.14258,
2009-07-08, 03:11:04,VALID,999.128,VALID,0,VALID,89.2132,VALID,0,VALID,23.5061,VALID,60,VALID,1.37383,
2009-07-08, 03:12:04,VALID,999.168,VALID,0,VALID,89.0377,VALID,0,VALID,23.5061,VALID,69,VALID,1.37852,
2009-07-08, 03:13:04,VALID,999.167,VALID,0,VALID,88.7477,VALID,0,VALID,23.5256,VALID,82,VALID,1.4707,
2009-07-08, 03:14:04,VALID,999.141,VALID,0,VALID,89.0071,VALID,0,VALID,23.5664,VALID,83,VALID,1.15273,
2009-07-08, 03:15:04,VALID,999.132,VALID,0,VALID,88.8164,VALID,0,VALID,23.5451,VALID,72,VALID,1.23945,
2009-07-08, 03:16:04,VALID,999.107,VALID,0,VALID,88.8088,VALID,0,VALID,23.5451,VALID,66,VALID,1.29727,
2009-07-08, 03:17:04,VALID,999.118,VALID,0,VALID,88.2518,VALID,0,VALID,23.5451,VALID,50,VALID,1.36953,
2009-07-08, 03:18:04,VALID,999.156,VALID,0,VALID,88.0534,VALID,0,VALID,23.5646,VALID,50,VALID,1.07266,
2009-07-08, 03:19:04,VALID,999.135,VALID,0,VALID,87.6109,VALID,0,VALID,23.5841,VALID,50,VALID,1.125,
2009-07-08, 03:20:04,VALID,999.134,VALID,0,VALID,87.5346,VALID,0,VALID,23.6036,VALID,71,VALID,1.22422,
2009-07-08, 03:21:04,VALID,999.129,VALID,0,VALID,87.2829,VALID,0,VALID,23.6232,VALID,62,VALID,1.01211,
2009-07-08, 03:22:04,VALID,999.147,VALID,0,VALID,87.2371,VALID,0,VALID,23.6427,VALID,51,VALID,1.14375,
2009-07-08, 03:23:04,VALID,999.144,VALID,0,VALID,87.4354,VALID,0,VALID,23.6622,VALID,53,VALID,0.888672,
2009-07-08, 03:24:04,VALID,999.12,VALID,0,VALID,87.5728,VALID,0,VALID,23.6427,VALID,49,VALID,0.954297,
2009-07-08, 03:25:04,VALID,999.082,VALID,0,VALID,87.7635,VALID,0,VALID,23.6427,VALID,44,VALID,0.876172,
2009-07-08, 03:26:04,VALID,999.095,VALID,0,VALID,87.878,VALID,0,VALID,23.6232,VALID,44,VALID,0.737891,
2009-07-08, 03:27:04,VALID,999.124,VALID,0,VALID,87.9924,VALID,0,VALID,23.6036,VALID,44,VALID,0.391406,
2009-07-08, 03:28:04,VALID,999.131,VALID,0,VALID,88.1297,VALID,0,VALID,23.5841,VALID,44,VALID,0.477734,
2009-07-08, 03:29:04,VALID,999.134,VALID,0,VALID,88.29,VALID,0,VALID,23.5451,VALID,44,VALID,0.392578,
2009-07-08, 03:30:04,VALID,999.109,VALID,0,VALID,88.4044,VALID,0,VALID,23.5061,VALID,37,VALID,0.557422,
2009-07-08, 03:31:04,VALID,999.119,VALID,0,VALID,88.5723,VALID,0,VALID,23.4653,VALID,22,VALID,0.75,
2009-07-08, 03:32:04,VALID,999.131,VALID,0,VALID,88.7401,VALID,0,VALID,23.4866,VALID,17,VALID,0.3,
2009-07-08, 03:33:04,VALID,999.116,VALID,0,VALID,88.7401,VALID,0,VALID,23.4671,VALID,17,VALID,0.175781,
2009-07-08, 03:34:04,VALID,999.119,VALID,0,VALID,88.8546,VALID,0,VALID,23.4671,VALID,17,VALID,0.276563,
2009-07-08, 03:35:04,VALID,999.049,VALID,0,VALID,88.9995,VALID,0,VALID,23.4671,VALID,17,VALID,0.567187,
2009-07-08, 03:36:04,VALID,999.122,VALID,0,VALID,88.8317,VALID,0,VALID,23.4671,VALID,360,VALID,0.242188,
2009-07-08, 03:37:04,VALID,999.117,VALID,0,VALID,89.0224,VALID,0,VALID,23.4671,VALID,360,VALID,0.260156,
2009-07-08, 03:38:04,VALID,999.065,VALID,0,VALID,88.6943,VALID,0,VALID,23.4671,VALID,360,VALID,0.669531,
2009-07-08, 03:39:04,VALID,999.069,VALID,0,VALID,88.4731,VALID,0,VALID,23.4671,VALID,8,VALID,1.04883,
2009-07-08, 03:40:04,VALID,999.025,VALID,0,VALID,88.3205,VALID,0,VALID,23.5061,VALID,19,VALID,1.16055,
2009-07-08, 03:41:04,VALID,999.016,VALID,0,VALID,88.3968,VALID,0,VALID,23.5451,VALID,22,VALID,1.18555,
2009-07-08, 03:42:04,VALID,999.039,VALID,0,VALID,88.6409,VALID,0,VALID,23.5451,VALID,22,VALID,0.521094,
2009-07-08, 03:43:04,VALID,999.051,VALID,0,VALID,89.0453,VALID,0,VALID,23.4866,VALID,346,VALID,0.390234,
2009-07-08, 03:44:04,VALID,999.017,VALID,0,VALID,89.236,VALID,0,VALID,23.4263,VALID,340,VALID,0.0546875,
2009-07-08, 03:45:04,VALID,999.008,VALID,0,VALID,89.3123,VALID,0,VALID,23.428,VALID,340,VALID,0.336328,